TimeEDT,TemperatureF,Dew PointF,Humidity,Sea Level PressureIn,VisibilityMPH,Wind Direction,Wind SpeedMPH,Gust SpeedMPH,PrecipitationIn,Events,Conditions,WindDirDegrees,DateUTC
12:17 AM,68.0,66.2,94,29.81,10.0,NW,5.8,-,N/A,,Scattered Clouds,320,2013-09-04 04:17:00
12:53 AM,66.9,66.0,97,29.82,9.0,WNW,4.6,-,N/A,,Clear,290,2013-09-04 04:53:00
1:53 AM,66.9,64.9,93,29.81,9.0,WNW,6.9,-,N/A,,Clear,290,2013-09-04 05:53:00
2:53 AM,66.0,60.1,81,29.82,10.0,NW,10.4,-,N/A,,Clear,310,2013-09-04 06:53:00
3:53 AM,66.0,59.0,78,29.83,10.0,WNW,9.2,-,N/A,,Clear,300,2013-09-04 07:53:00
4:53 AM,64.0,57.9,80,29.84,10.0,West,6.9,-,N/A,,Clear,280,2013-09-04 08:53:00
5:53 AM,63.0,59.0,87,29.86,10.0,WNW,6.9,-,N/A,,Clear,290,2013-09-04 09:53:00
6:53 AM,64.0,59.0,84,29.87,10.0,WNW,6.9,-,N/A,,Clear,290,2013-09-04 10:53:00
7:53 AM,66.9,60.1,79,29.88,10.0,WNW,12.7,-,N/A,,Clear,300,2013-09-04 11:53:00
8:53 AM,68.0,59.0,73,29.91,10.0,NW,12.7,-,N/A,,Clear,310,2013-09-04 12:53:00
9:53 AM,71.1,60.1,68,29.91,10.0,NW,11.5,-,N/A,,Clear,310,2013-09-04 13:53:00
10:53 AM,73.0,61.0,66,29.91,10.0,WNW,9.2,-,N/A,,Clear,290,2013-09-04 14:53:00
11:53 AM,73.0,60.1,64,29.91,10.0,WNW,9.2,-,N/A,,Clear,290,2013-09-04 15:53:00
12:53 PM,72.0,62.1,71,29.91,10.0,WSW,11.5,-,N/A,,Clear,250,2013-09-04 16:53:00
1:53 PM,73.0,62.1,68,29.91,10.0,WSW,13.8,-,N/A,,Clear,250,2013-09-04 17:53:00
2:53 PM,73.0,61.0,66,29.91,10.0,WSW,16.1,-,N/A,,Clear,250,2013-09-04 18:53:00
3:53 PM,72.0,62.1,71,29.91,10.0,WSW,17.3,-,N/A,,Clear,250,2013-09-04 19:53:00
4:53 PM,72.0,61.0,68,29.91,10.0,WSW,13.8,23.0,N/A,,Clear,250,2013-09-04 20:53:00
5:53 PM,70.0,62.1,76,29.91,10.0,WSW,15.0,-,N/A,,Clear,240,2013-09-04 21:53:00
6:53 PM,68.0,63.0,84,29.91,10.0,WSW,12.7,-,N/A,,Clear,240,2013-09-04 22:53:00
7:53 PM,66.9,63.0,87,29.93,10.0,WSW,13.8,-,N/A,,Clear,240,2013-09-04 23:53:00
8:53 PM,66.9,62.1,84,29.94,10.0,WSW,12.7,-,N/A,,Clear,250,2013-09-05 00:53:00
9:53 PM,66.9,62.1,84,29.95,10.0,WSW,11.5,-,N/A,,Clear,250,2013-09-05 01:53:00
10:53 PM,66.9,63.0,87,29.95,10.0,WSW,11.5,-,N/A,,Clear,250,2013-09-05 02:53:00
11:53 PM,66.9,64.0,90,29.95,10.0,WSW,10.4,-,N/A,,Clear,250,2013-09-05 03:53:00